This is the latest recevied weather packets stored in our database for station/object W2JBO-5. If no packets are shown the sender has not sent any weather packets the latest 10 day(s).
| Time | Temp. | Humidity | Pressure | Rain* | Wind** | Luminosity | Snow |
|---|---|---|---|---|---|---|---|
| 1777773509 | 15° C | 78% | - | 0 mm | - | - | - |
| 1777773206 | 15° C | 78% | - | 0 mm | - | - | - |
| 1777772901 | 15° C | 77% | - | 0 mm | - | - | - |
| 1777772599 | 15.56° C | 77% | - | 0 mm | - | - | - |
| 1777772296 | 15.56° C | 75% | - | 0 mm | - | - | - |
| 1777771994 | 15.56° C | 74% | - | 0 mm | - | - | - |
| 1777771691 | 16.11° C | 73% | - | 0 mm | - | - | - |
| 1777771388 | 16.11° C | 71% | - | 0 mm | - | - | - |
| 1777771085 | 16.67° C | 71% | - | 0 mm | - | - | - |
| 1777770782 | 17.22° C | 68% | - | 0 mm | - | - | - |
| 1777770478 | 17.78° C | 68% | - | 0 mm | - | - | - |
| 1777770175 | 17.78° C | 68% | - | 0 mm | - | - | - |
| 1777769872 | 17.78° C | 69% | - | 0 mm | - | - | - |
| 1777769570 | 17.78° C | 72% | - | 0 mm | - | - | - |
| 1777769265 | 17.78° C | 64% | - | 0 mm | - | - | - |
| 1777768964 | 17.78° C | 61% | - | 0 mm | - | - | - |
| 1777768660 | 18.33° C | 60% | - | 0 mm | - | - | - |
| 1777768358 | 18.33° C | 59% | - | 0 mm | - | - | - |
| 1777768054 | 18.33° C | 58% | - | 0 mm | - | - | - |
| 1777767751 | 18.89° C | 59% | - | 0 mm | - | - | - |
| 1777767447 | 18.89° C | 58% | - | 0 mm | - | - | - |
| 1777767144 | 18.89° C | 57% | - | 0 mm | - | - | - |
| 1777766842 | 19.44° C | 55% | - | 0 mm | - | - | - |
| 1777766539 | 19.44° C | 55% | - | 0 mm | - | - | - |
| 1777766236 | 20° C | 55% | - | 0 mm | - | - | - |
* Rain latest hour (hover to see other rain measurements)
** Current wind speed in m/s (hover to see current wind gust speed)